If you wish to contribute or participate in the discussions about articles you are invited to join SKYbrary as a registered user

 Actions

Tabatinga International Airport

From SKYbrary Wiki

SBTT
Airport
ICAO: SBTT – IATA: TBT
Summary
Name Tabatinga International Airport
Region South America and Caribbean
Territory Brazil BR.gif
Location Tabatinga, Amazonas
Serving Tabatinga
Elevation 85.039 m
279 ft85.039 m
Coordinates 4° 15' 24.98" S, 69° 56' 16.01" W
Runways
Designator Length Width Surface ROPS
12/30 2150 m7,053.806 ft
30 m98.425 ft
ASP /


METAR
Observation SBTT 211600Z 15005KT 9999 FEW013 BKN100 28/25 Q1012
Station Tabatinga
Date/Time 21 February 2020 16:00:00
Wind direction 150°
Wind speed 05 kts
Lowest cloud amount few clouds
Temperature 28°C
Dew point 25°C
Humidity 83%
QNH 1012 hPa
Weather condition n/a

Tabatinga International Airport (IATA: TBT, ICAO: SBTT) is the airport serving Tabatinga, Brazil, located by the border with Colombia and Peru.

Climatology

Tropical rainforest climate (Köppen climate classification Af)

Maps

Terrain

Loading map...

Airport Layout

Loading map...


Accidents & Serious Incidents at or in vicinity of SBTT

None on SKYbrary